User: anonymous   Login
Location: Laas
(43.4693°N, 0.3073°E)
Time: 15:45:03
(UTC+00:00)
Language:

MOS 1 Rocket - Orbit

View from above orbital plane
View from above orbital plane
View from above satellite
View from above satellite

Ground track
Ground track

The orbit data is extracted from the following two-line orbital elements,

1 17528U 87018B   21016.75760295  .00000010  00000-0  11319-4 0  9998
2 17528  97.3995 206.7384 0152521 153.3599 207.5539 14.51024610769151
Epoch (UTC): 16 January 2021 18:10:56
Eccentricity: 0.0152521
inclination: 97.3995°
perigee height: 614 km
apogee height: 830 km
right ascension of ascending node: 206.7384°
argument of perigee: 153.3599°
revolutions per day: 14.51024610
mean anomaly at epoch: 207.5539°
orbit number at epoch: 76915

The dashed part of the orbit path shows where the satellite is in the earth's shadow,  

DLR